Weather History for KRKP - July, 2013

Change the Weather History Date:

Sunday, July 28, 2013

  Actual Average (KCRP) Record (KCRP)
Temperature  
Mean Temperature 86 °F 84 °F  
Max Temperature 91 °F 94 °F 100 °F (1965)
Min Temperature 82 °F 75 °F 68 °F (1908)
Degree Days  
Heating Degree Days 0 0  
Month to date heating degree days 0  
Since 1 June heating degree days 0  
Since 1 July heating degree days 0  
Cooling Degree Days 22 19  
Month to date cooling degree days 528  
Year to date cooling degree days 1891  
Since 1 June cooling degree days 1050  
Growing Degree Days 36 (Base 50)    
Moisture  
Dew Point 77 °F    
Average Humidity 78    
Maximum Humidity 85    
Minimum Humidity 59    
Precipitation  
Precipitation 0.00 in 0.06 in 1.80 in (2010)
Month to date precipitation 2.61  
Year to date precipitation 16.24  
Snow  
Snow 0.00 in - - ()
Month to date snowfall  
Since 1 June snowfall  
Since 1 July snowfall  
Snow Depth -    
Sea Level Pressure  
Sea Level Pressure 29.91 in    
Wind  
Wind Speed 10 mph (South)    
Max Wind Speed 18 mph    
Max Gust Speed 26 mph    
Visibility 8 miles    
Events      
T = Trace of Precipitation, MM = Missing Value Source: NWS Daily Summary

Daily Weather History Graph

Daily Weather History Graph

Search for Another Location

Airport or City:

Trip Planner

Search our weather history database for the weather conditions in past years. The results will help you decide how hot, cold, wet, or windy it might be!

Date:

Astronomy

Jul. 28, 2013 Rise Set
Actual Time 6:48 AM CDT 8:20 PM CDT
Civil Twilight 6:23 AM CDT 8:45 PM CDT
Nautical Twilight 5:52 AM CDT 9:16 PM CDT
Astronomical Twilight 5:20 AM CDT 9:48 PM CDT
Moon No Moon Rise 12:52 PM CDT (7/28)
Length of Visible Light 14h 22m
Length of Day
13h 31m
Waning Gibbous, 60% of the Moon is Illuminated
Jul 28
Waning Gibbous
Jul 29
Last Quarter
Aug 6
New
Aug 14
First Quarter
Aug 20
Full

Hourly Weather History & Observations

Time (CDT) Temp. Heat Index Dew Point Humidity Pressure Visibility Wind Dir Wind Speed Gust Speed Precip Events Conditions
12:53 AM 82.9 °F 92.8 °F 78.1 °F 85% 29.91 in 8.0 mi South 11.5 mph - N/A   Mostly Cloudy
1:53 AM 82.9 °F 92.8 °F 78.1 °F 85% 29.90 in 8.0 mi South 8.1 mph - N/A   Overcast
2:25 AM 82.4 °F 90.9 °F 77.0 °F 84% 29.89 in 8.0 mi South 9.2 mph 18.4 mph N/A   Partly Cloudy
2:53 AM 82.0 °F 90.2 °F 77.0 °F 85% 29.89 in 8.0 mi Variable 6.9 mph - N/A   Mostly Cloudy
3:12 AM 82.4 °F 90.9 °F 77.0 °F 84% 29.89 in 8.0 mi Variable 6.9 mph - N/A   Overcast
3:53 AM 82.0 °F 90.2 °F 77.0 °F 85% 29.89 in 9.0 mi South 9.2 mph - N/A   Mostly Cloudy
4:53 AM 82.0 °F 90.2 °F 77.0 °F 85% 29.89 in 9.0 mi South 6.9 mph - N/A   Overcast
5:17 AM 82.4 °F 90.9 °F 77.0 °F 84% 29.89 in 9.0 mi South 6.9 mph - N/A   Overcast
5:53 AM 82.0 °F 90.2 °F 77.0 °F 85% 29.90 in 8.0 mi South 6.9 mph - N/A   Overcast
6:22 AM 82.4 °F 90.9 °F 77.0 °F 84% 29.90 in 8.0 mi South 8.1 mph 17.3 mph N/A   Scattered Clouds
6:53 AM 82.0 °F 90.2 °F 77.0 °F 85% 29.91 in 8.0 mi South 6.9 mph - N/A   Mostly Cloudy
7:07 AM 82.4 °F 90.9 °F 77.0 °F 84% 29.91 in 7.0 mi South 6.9 mph - N/A   Scattered Clouds
7:53 AM 82.0 °F 90.2 °F 77.0 °F 85% 29.92 in 7.0 mi Variable 5.8 mph 16.1 mph N/A   Scattered Clouds
8:21 AM 82.4 °F 90.9 °F 77.0 °F 84% 29.92 in 7.0 mi South 10.4 mph - N/A   Mostly Cloudy
8:46 AM 84.2 °F 94.1 °F 77.0 °F 79% 29.92 in 7.0 mi South 12.7 mph 18.4 mph N/A   Scattered Clouds
8:53 AM 84.0 °F 93.7 °F 77.0 °F 79% 29.93 in 8.0 mi South 9.2 mph 18.4 mph N/A   Scattered Clouds
9:53 AM 86.0 °F 96.0 °F 75.9 °F 72% 29.94 in 8.0 mi South 11.5 mph 19.6 mph N/A   Scattered Clouds
10:53 AM 87.1 °F 97.3 °F 75.9 °F 69% 29.94 in 8.0 mi South 12.7 mph 20.7 mph N/A   Partly Cloudy
11:53 AM 90.0 °F 101.3 °F 75.9 °F 63% 29.95 in 8.0 mi South 13.8 mph 19.6 mph N/A   Partly Cloudy
12:53 PM 89.1 °F 99.1 °F 75.0 °F 63% 29.94 in 8.0 mi SSE 17.3 mph 26.5 mph N/A   Partly Cloudy
1:53 PM 91.0 °F 101.6 °F 75.0 °F 59% 29.94 in 8.0 mi SSE 15.0 mph 23.0 mph N/A   Scattered Clouds
2:53 PM 89.1 °F 99.1 °F 75.0 °F 63% 29.92 in 8.0 mi SE 16.1 mph 25.3 mph N/A   Mostly Cloudy
3:53 PM 89.1 °F 99.1 °F 75.0 °F 63% 29.89 in 8.0 mi SSE 18.4 mph 25.3 mph N/A   Scattered Clouds
4:53 PM 89.1 °F 100.2 °F 75.9 °F 65% 29.88 in 8.0 mi SSE 16.1 mph 24.2 mph N/A   Clear
5:53 PM 88.0 °F 98.5 °F 75.9 °F 67% 29.88 in 8.0 mi SSE 16.1 mph 23.0 mph N/A   Clear
6:53 PM 86.0 °F 96.0 °F 75.9 °F 72% 29.88 in 8.0 mi SSE 17.3 mph 25.3 mph N/A   Clear
7:53 PM 84.9 °F 95.3 °F 77.0 °F 77% 29.89 in 8.0 mi SSE 12.7 mph 21.9 mph N/A   Clear
8:53 PM 84.0 °F 93.7 °F 77.0 °F 79% 29.90 in 9.0 mi SSE 17.3 mph 24.2 mph N/A   Clear
9:53 PM 82.9 °F 91.8 °F 77.0 °F 82% 29.92 in 9.0 mi SSE 11.5 mph 25.3 mph N/A   Clear
10:53 PM 82.9 °F 91.8 °F 77.0 °F 82% 29.93 in 9.0 mi SSE 11.5 mph 21.9 mph N/A   Clear
11:51 PM 82.4 °F 90.9 °F 77.0 °F 84% 29.94 in 9.0 mi SSE 12.7 mph 21.9 mph N/A   Mostly Cloudy
11:53 PM 82.9 °F 91.8 °F 77.0 °F 82% 29.95 in 9.0 mi SSE 11.5 mph 21.9 mph N/A   Mostly Cloudy